Estación de San Pedro

Ultimos registro cada 15 minutos 21
Estación Fecha / Hora Temperatura Humedad Lluvia Velocidad Dirección Radiación Presion
21 San Pedro 04-05-2026 05:00 3,4 92,6 0 0 236 0,6 1000,2
20 San Pedro 04-05-2026 04:45 3,8 91,3 0 0 236 0,6 1000,1
19 San Pedro 04-05-2026 04:30 4,2 89,3 0 0 236 0,6 1000,1
18 San Pedro 04-05-2026 04:15 4,4 89,3 0 0 236 0,6 1000,4
17 San Pedro 04-05-2026 04:00 3,9 90,4 0 0 236 0,6 1000,3
16 San Pedro 04-05-2026 03:45 3,7 91,1 0 0 236 0,6 1000,4
15 San Pedro 04-05-2026 03:30 3,3 90,3 0 0 236 0,6 1000,5
14 San Pedro 04-05-2026 03:15 5,1 85 0 0 132 0,6 1000,6
13 San Pedro 04-05-2026 03:00 5,4 84,6 0 0 73 0,6 1000,7
12 San Pedro 04-05-2026 02:45 5,8 83,3 0 0,5 76 0,6 1001
11 San Pedro 04-05-2026 02:30 4,1 90,3 0 0 74 0,6 1001,2
10 San Pedro 04-05-2026 02:15 4,1 88,7 0 0 74 0,6 1001,4
9 San Pedro 04-05-2026 02:00 3,8 88,1 0 0 76 0,6 1001
8 San Pedro 04-05-2026 01:45 3,4 89,4 0 0 76 0,6 1001,2
7 San Pedro 04-05-2026 01:30 3,8 88,5 0 0 74 0,6 1001
6 San Pedro 04-05-2026 01:15 4,6 87,2 0 0 70 0,6 1001,3
5 San Pedro 04-05-2026 01:00 4,8 83,4 0 0 70 0,6 1001,5
4 San Pedro 04-05-2026 00:45 5,7 84 0 0 70 0,6 1001,5
3 San Pedro 04-05-2026 00:30 4,8 87,7 0 0 70 0,6 1002
2 San Pedro 04-05-2026 00:15 4,5 88,1 0 0 69 0,6 1002,2
1 San Pedro 04-05-2026 00:00 5,4 83,2 0 0 70 0,6 1001,9